• Em Portugal
  • Lista de países
  • Para 7 dias
  • Temperatura da água
  • Mapas de satélite
  • Mapa do tempo
  • Widgets de tempo
  • user-avatar
    Iniciar Sessão

    Previsão horária em Rostkovo

    Hoje, 21 Setembro, Sexta-feira

    Tempo Temperatura Precipitação Vento Pressão Humidade
    00:00 +16°C° 0 mm 1 m/s 746 mmHg 85%
    01:00 +16°C° 0 mm 1 m/s 746 mmHg 87%
    02:00 +16°C° 0 mm 1 m/s 746 mmHg 88%
    03:00 +16°C° 0 mm 1 m/s 746 mmHg 90%
    04:00 +16°C° 0 mm 1 m/s 746 mmHg 91%
    05:00 +15°C° 0 mm 1 m/s 746 mmHg 92%
    06:00 +18°C° 0 mm 1 m/s 746 mmHg 90%
    07:00 +18°C° 0 mm 2 m/s 746 mmHg 87%
    08:00 +19°C° 0 mm 2 m/s 747 mmHg 85%
    09:00 +20°C° 0 mm 2 m/s 747 mmHg 79%
    10:00 +23°C° 0 mm 2 m/s 747 mmHg 74%
    11:00 +25°C° 0 mm 3 m/s 747 mmHg 68%
    12:00 +25°C° 0 mm 3 m/s 746 mmHg 65%
    13:00 +26°C° 0 mm 3 m/s 746 mmHg 62%
    14:00 +26°C° 0 mm 3 m/s 746 mmHg 59%
    15:00 +25°C° 0 mm 3 m/s 746 mmHg 63%
    16:00 +24°C° 0 mm 3 m/s 745 mmHg 67%
    17:00 +23°C° 0 mm 2 m/s 745 mmHg 70%
    18:00 +21°C° 0 mm 3 m/s 745 mmHg 73%
    19:00 +20°C° 0 mm 3 m/s 745 mmHg 75%
    20:00 +18°C° 0 mm 3 m/s 745 mmHg 78%
    21:00 +18°C° 0 mm 3 m/s 744 mmHg 78%
    22:00 +18°C° 0 mm 4 m/s 744 mmHg 79%
    23:00 +17°C° 0 mm 4 m/s 744 mmHg 79%

    Amanhã, 22 Setembro, Sábado

    Tempo Temperatura Precipitação Vento Pressão Humidade
    00:00 +17°C° 0 mm 4 m/s 744 mmHg 78%
    01:00 +17°C° 0 mm 4 m/s 743 mmHg 78%
    02:00 +17°C° 0 mm 4 m/s 743 mmHg 78%
    03:00 +15°C° 0 mm 5 m/s 743 mmHg 78%
    04:00 +15°C° 0 mm 5 m/s 742 mmHg 79%
    05:00 +15°C° 0 mm 5 m/s 742 mmHg 79%
    06:00 +16°C° 0 mm 5 m/s 742 mmHg 77%
    07:00 +16°C° 0 mm 6 m/s 741 mmHg 74%
    08:00 +17°C° 0 mm 6 m/s 741 mmHg 72%
    09:00 +19°C° 0 mm 6 m/s 741 mmHg 66%
    10:00 +21°C° 0 mm 7 m/s 741 mmHg 60%
    11:00 +23°C° 0 mm 7 m/s 741 mmHg 55%
    12:00 +22°C° 0 mm 6 m/s 740 mmHg 58%
    13:00 +21°C° 0 mm 5 m/s 740 mmHg 62%
    14:00 +20°C° 0 mm 4 m/s 740 mmHg 65%
    15:00 +17°C° 0 mm 5 m/s 740 mmHg 67%
    16:00 +15°C° 0 mm 5 m/s 740 mmHg 70%
    17:00 +14°C° 0 mm 6 m/s 740 mmHg 72%
    18:00 +11°C° 0.5 mm 6 m/s 741 mmHg 76%
    19:00 +10°C° 0.5 mm 5 m/s 741 mmHg 80%
    20:00 +9°C° 0.5 mm 5 m/s 741 mmHg 84%
    21:00 +10°C° 0.9 mm 4 m/s 741 mmHg 86%
    22:00 +8°C° 0.9 mm 4 m/s 741 mmHg 89%
    23:00 +9°C° 0.9 mm 3 m/s 742 mmHg 92%

    Depois de amanhã, 23 Setembro, Domingo

    Tempo Temperatura Precipitação Vento Pressão Humidade
    00:00 +9°C° 0.6 mm 3 m/s 741 mmHg 92%
    01:00 +9°C° 0.6 mm 3 m/s 741 mmHg 93%
    02:00 +9°C° 0.6 mm 3 m/s 741 mmHg 94%
    03:00 +9°C° 0.2 mm 3 m/s 741 mmHg 94%
    04:00 +9°C° 0.2 mm 3 m/s 741 mmHg 94%
    05:00 +9°C° 0.2 mm 3 m/s 741 mmHg 94%
    06:00 +9°C° 0 mm 3 m/s 741 mmHg 93%
    07:00 +9°C° 0 mm 3 m/s 740 mmHg 91%
    08:00 +9°C° 0 mm 3 m/s 740 mmHg 90%
    09:00 +11°C° 0 mm 4 m/s 740 mmHg 83%
    10:00 +12°C° 0 mm 4 m/s 740 mmHg 76%
    11:00 +13°C° 0 mm 5 m/s 740 mmHg 69%
    12:00 +13°C° 0.3 mm 5 m/s 740 mmHg 67%
    13:00 +14°C° 0.3 mm 5 m/s 740 mmHg 66%
    14:00 +14°C° 0.3 mm 5 m/s 740 mmHg 64%
    15:00 +13°C° 0.2 mm 5 m/s 740 mmHg 68%
    16:00 +12°C° 0.2 mm 5 m/s 740 mmHg 72%
    17:00 +11°C° 0.2 mm 4 m/s 740 mmHg 77%
    18:00 +10°C° 0 mm 4 m/s 740 mmHg 80%
    19:00 +8°C° 0 mm 4 m/s 740 mmHg 83%
    20:00 +7°C° 0 mm 4 m/s 741 mmHg 86%
    21:00 +7°C° 0 mm 4 m/s 741 mmHg 87%
    22:00 +7°C° 0 mm 4 m/s 741 mmHg 88%
    23:00 +7°C° 0 mm 4 m/s 741 mmHg 89%

    24 Setembro, Segunda-feira

    Tempo Temperatura Precipitação Vento Pressão Humidade
    00:00 +6°C° 0 mm 4 m/s 741 mmHg 90%
    01:00 +7°C° 0 mm 3 m/s 741 mmHg 92%
    02:00 +5°C° 0 mm 3 m/s 741 mmHg 93%
    03:00 +5°C° 0 mm 3 m/s 741 mmHg 94%
    04:00 +5°C° 0 mm 3 m/s 740 mmHg 94%
    05:00 +5°C° 0 mm 3 m/s 740 mmHg 94%
    06:00 +7°C° 0 mm 3 m/s 740 mmHg 91%
    07:00 +8°C° 0 mm 3 m/s 739 mmHg 87%
    08:00 +8°C° 0 mm 3 m/s 739 mmHg 84%
    09:00 +8°C° 0 mm 4 m/s 739 mmHg 79%
    10:00 +9°C° 0 mm 5 m/s 738 mmHg 74%
    11:00 +12°C° 0 mm 5 m/s 738 mmHg 70%
    12:00 +10°C° 0.9 mm 6 m/s 737 mmHg 75%
    13:00 +9°C° 0.9 mm 7 m/s 736 mmHg 80%
    14:00 +9°C° 0.9 mm 7 m/s 734 mmHg 85%
    15:00 +7°C° 2 mm 8 m/s 733 mmHg 87%
    16:00 +7°C° 2 mm 8 m/s 732 mmHg 89%
    17:00 +6°C° 2 mm 8 m/s 731 mmHg 91%
    18:00 +7°C° 1.3 mm 8 m/s 729 mmHg 91%
    19:00 +7°C° 1.3 mm 8 m/s 728 mmHg 92%
    20:00 +8°C° 1.3 mm 7 m/s 727 mmHg 93%
    21:00 +9°C° 2.7 mm 7 m/s 725 mmHg 94%
    22:00 +9°C° 2.7 mm 6 m/s 724 mmHg 94%
    23:00 +10°C° 2.7 mm 5 m/s 723 mmHg 95%

    25 Setembro, Terça-feira

    Tempo Temperatura Precipitação Vento Pressão Humidade
    00:00 +10°C° 1.2 mm 5 m/s 722 mmHg 95%
    01:00 +9°C° 1.2 mm 5 m/s 722 mmHg 94%
    02:00 +9°C° 1.2 mm 5 m/s 721 mmHg 93%
    03:00 +9°C° 1.2 mm 5 m/s 721 mmHg 94%
    04:00 +8°C° 1.2 mm 5 m/s 721 mmHg 94%
    05:00 +8°C° 1.2 mm 5 m/s 722 mmHg 94%
    06:00 +8°C° 1.3 mm 6 m/s 722 mmHg 93%
    07:00 +6°C° 1.3 mm 7 m/s 723 mmHg 93%
    08:00 +6°C° 1.3 mm 7 m/s 723 mmHg 92%
    09:00 +6°C° 1.4 mm 9 m/s 724 mmHg 91%
    10:00 +5°C° 1.4 mm 10 m/s 725 mmHg 90%
    11:00 +4°C° 1.4 mm 11 m/s 726 mmHg 88%
    12:00 +4°C° 0.7 mm 12 m/s 727 mmHg 88%
    13:00 +4°C° 0.7 mm 12 m/s 728 mmHg 87%
    14:00 +3°C° 0.7 mm 12 m/s 730 mmHg 86%
    15:00 +3°C° 0.7 mm 12 m/s 731 mmHg 84%
    16:00 +3°C° 0.7 mm 11 m/s 732 mmHg 83%
    17:00 +3°C° 0.7 mm 11 m/s 733 mmHg 81%
    18:00 +3°C° 0.1 mm 10 m/s 733 mmHg 79%
    19:00 +3°C° 0.1 mm 10 m/s 734 mmHg 77%
    20:00 +2°C° 0.1 mm 9 m/s 735 mmHg 75%
    21:00 +2°C° 0 mm 8 m/s 735 mmHg 75%
    22:00 +2°C° 0 mm 8 m/s 736 mmHg 75%
    23:00 +2°C° 0 mm 7 m/s 736 mmHg 75%

    26 Setembro, Quarta-feira

    Tempo Temperatura Precipitação Vento Pressão Humidade
    00:00 +2°C° 0 mm 7 m/s 737 mmHg 75%
    01:00 0°C° 0 mm 7 m/s 737 mmHg 76%
    02:00 0°C° 0 mm 7 m/s 738 mmHg 76%
    03:00 0°C° 0 mm 7 m/s 738 mmHg 76%
    04:00 0°C° 0 mm 7 m/s 738 mmHg 76%
    05:00 -1°C° 0 mm 6 m/s 739 mmHg 76%
    06:00 0°C° 0 mm 7 m/s 739 mmHg 74%
    07:00 +2°C° 0 mm 7 m/s 740 mmHg 72%
    08:00 +1°C° 0 mm 8 m/s 740 mmHg 70%
    09:00 +2°C° 0 mm 8 m/s 741 mmHg 66%
    10:00 +4°C° 0 mm 8 m/s 742 mmHg 62%
    11:00 +5°C° 0 mm 8 m/s 742 mmHg 58%
    12:00 +6°C° 0 mm 8 m/s 743 mmHg 57%
    13:00 +6°C° 0 mm 8 m/s 743 mmHg 56%
    14:00 +6°C° 0 mm 7 m/s 744 mmHg 55%
    15:00 +7°C° 0 mm 6 m/s 745 mmHg 59%
    16:00 +6°C° 0 mm 5 m/s 745 mmHg 62%
    17:00 +6°C° 0 mm 4 m/s 746 mmHg 65%
    18:00 +5°C° 0 mm 4 m/s 746 mmHg 67%
    19:00 +4°C° 0 mm 4 m/s 747 mmHg 69%
    20:00 +3°C° 0 mm 4 m/s 747 mmHg 71%
    21:00 +3°C° 0 mm 3 m/s 748 mmHg 73%
    22:00 +2°C° 0 mm 3 m/s 748 mmHg 75%
    23:00 +2°C° 0 mm 3 m/s 749 mmHg 77%
    Mostrar mais